Location: Ferchesar
(52.6477°N, 12.4298°E)
Time: 08:38:10
(UTC+01:00)

Vanguard 3 - Pass Details

Date: 11 December 2021
Orbit: 508 x 3260 km, 33.3° (Epoch: 25 January)

Event Time Altitude Azimuth Distance (km) Brightness Sun altitude
Exits shadow 05:30:30 18° 246° (WSW) 5,491 10.8 -23.0°
Maximum altitude 05:43:17 37° 197° (SSW) 4,191 10.6 -21.1°
Drops below altitude 10° 05:57:30 10° 138° (SE) 5,199 12.0 -19.0°
Sets 06:01:23 0° 130° (SE) 5,873 12.7 -18.4°
